Flag for Canada Weather past 2 weeks in Fredericton, New Brunswick, Canada

Now
63 °F

Clear.


Feels Like: 63 °F
Forecast: 59 / 84 °F
Wind: 9 mph from South

Location: Fredericton

Current Time: May 26, 2015 at 11:31:35 PM

Latest Report: May 26, 2015 at 11:00 PM


Visibility: 9 mi

Pressure: 29.99 "Hg

Humidity: 83%

Dew point: 57 °F

Location of FrederictonLocation

Historic Weather in Fredericton — Graph

°F

Fredericton temperature yesterday

Maximum temperature yesterday: 82 °F (at 2:00 PM)
Minimum temperature yesterday: 50 °F (at 6:00 AM)
Average temperature yesterday: 67 °F

Past Weeks' High & Low Weather Summary

 TemperatureHumidityPressure
High82 °F (May 25, 2:00 PM)100% (May 12, 7:54 AM)30.33 "Hg (May 12, 7:54 AM)
Low30 °F (May 14, 6:00 AM)16% (May 15, 5:00 PM)29.48 "Hg (May 20, 2:00 PM)
Average55 °F67%29.97 "Hg
* Reported May 11 10:00 PM — May 26 10:00 PM, Fredericton, Weather by CustomWeather, © 2015

Note: Actual official high and low records may vary slightly from our data, if they occured in-between our weather recording intervals... More about our weather records

Advertising

Fredericton weather history for previous 24 hours

 ConditionsComfort  
Time TempWeatherWind HumidityBarometerVisibility
10:00 PM
Tue, May 26
66 °FSunny.9 mph78%29.98 "Hg9 mi
9:00 PM70 °FSunny.13 mph73%29.97 "Hg9 mi
8:00 PM75 °FSunny.13 mph65%29.96 "Hg9 mi
7:00 PM79 °FPassing clouds.10 mph61%29.95 "Hg9 mi
6:00 PM79 °FBroken clouds.15 mph61%29.94 "Hg9 mi
5:00 PM77 °FMostly cloudy.15 mph65%29.93 "Hg9 mi
4:00 PM79 °FPassing clouds.17 mph61%29.93 "Hg9 mi
3:00 PM75 °FPartly sunny.13 mph69%29.95 "Hg9 mi
2:00 PM75 °FPassing clouds.13 mph65%29.96 "Hg9 mi
1:00 PM70 °FPartly sunny.17 mph73%29.97 "Hg9 mi
12:00 PM66 °FOvercast.13 mph83%29.98 "Hg9 mi
11:00 AM63 °FOvercast.14 mph88%30.00 "Hg9 mi
10:57 AM63 °FOvercast.14 mph88%30.00 "Hg9 mi
10:00 AM59 °FLight rain. Low clouds.9 mph94%30.01 "Hg9 mi
9:00 AM57 °FLight rain. Low clouds.7 mph94%30.01 "Hg9 mi
8:00 AM55 °FLight rain. Fog.9 mph100%30.01 "Hg6 mi
7:46 AM55 °FLight rain. Fog.9 mph94%30.02 "Hg6 mi
7:00 AM57 °FLight rain. Fog.10 mph94%30.02 "Hg5 mi
6:00 AM57 °FLight rain. Fog.8 mph100%30.03 "Hg5 mi
5:47 AM57 °FRain. Fog.6 mph100%30.04 "Hg5 mi
5:01 AM57 °FLight rain. Fog.6 mph94%30.05 "Hg5 mi
4:00 AM59 °FLight rain. Mostly cloudy.2 mph94%30.07 "Hg8 mi
3:00 AM61 °FLight rain. Mostly cloudy.3 mph88%30.08 "Hg9 mi
2:00 AM64 °FLight rain. Overcast.10 mph73%30.09 "Hg9 mi
1:00 AM64 °FOvercast.6 mph64%30.08 "Hg9 mi
12:00 AM66 °FMostly cloudy.8 mph60%30.08 "Hg9 mi
11:00 PM
Mon, May 25
64 °FMostly cloudy.7 mph60%30.09 "Hg9 mi
Weather by CustomWeather, © 2015

See weather overviewHow to use our weather pages